Regional Weather Roundup
Issued by NWS

Home | Current Version | Previous Version | Text Only | Print | Product List | Glossary On
Versions: 1 2 3 4 5 6 7 8 9 10 11 12 13 14 15 16 17 18 19 20 21 22 23 24 25 26 27 28 29 30 31 32 33 34 35 36 37 38 39 40 41 42 43 44 45 46 47 48 49 50
000
ASUS45 KREV 141910
RWRNV
NEVADA REGIONAL WEATHER ROUNDUP
NATIONAL WEATHER SERVICE RENO NV
1100 AM PST THU DEC 14 2017

NOTE: "FAIR" INDICATES FEW OR NO CLOUDS BELOW 12,000 FEET WITH NO
SIGNIFICANT WEATHER AND/OR OBSTRUCTIONS TO VISIBILITY.

NVZ001-003-004-142000-
WESTERN NEVADA

CITY           SKY/WX    TMP DP  RH WIND       PRES   REMARKS
RENO           MOSUNNY   37  20  50 CALM      30.42F
CARSON CITY    FAIR      36  16  44 CALM      30.44F
MINDEN         FAIR      36  14  41 N3        30.44F
SLIDE MTN        N/A     45 -15   8 E17         N/A
PYRAMID LAKE     N/A     41 N/A N/A S9          N/A
FALLON         PTSUNNY   35  15  44 VRB3      30.46F
LOVELOCK       SUNNY     35  19  52 CALM      30.46F
HAWTHORNE      SUNNY     36  21  55 CALM      30.44F
$$

NVZ002-CAZ072-073-142000-
NORTHERN AND CENTRAL SIERRA

CITY           SKY/WX    TMP DP  RH WIND       PRES   REMARKS
S. LAKE TAHOE  SUNNY     45  24  43 CALM      30.34F
TRUCKEE        SUNNY     36  19  51 CALM      30.38F
SQUAW VLY 8000   N/A     45  16  31 SE3         N/A
SUSANVILLE     SUNNY     36  27  69 CALM      30.44F
BLUE CANYON    SUNNY     66   8  10 NW3       30.27R
MAMMOTH LAKES  FAIR      54   7  15 CALM      30.40F
$$

NVZ030-031-036-142000-
NORTHERN NEVADA

CITY           SKY/WX    TMP DP  RH WIND       PRES   REMARKS
ELKO           SUNNY     33  22  63 VRB3      30.45F
WINNEMUCCA     SUNNY     37  21  52 CALM      30.44F
WENDOVER       SUNNY     33  21  61 SE5       30.46F
$$

NVZ035-037-142000-
CENTRAL NEVADA

CITY           SKY/WX    TMP DP  RH WIND       PRES   REMARKS
ELY            SUNNY     38  22  52 N13       30.39F
EUREKA           N/A     37  22  54 CALM      30.41F
$$

NVZ013-014-142000-
SOUTH CENTRAL NEVADA

CITY           SKY/WX    TMP DP  RH WIND       PRES   REMARKS
TONOPAH        SUNNY     49  15  25 VRB3      30.38F
$$

NVZ017-020-022-142000-
SOUTHERN NEVADA

CITY           SKY/WX    TMP DP  RH WIND       PRES   REMARKS
LAS VEGAS      SUNNY     64  22  20 N15       30.24F
N. LAS VEGAS   SUNNY     63  20  19 NW23G30   30.24S
NELLIS AFB     SUNNY     63  22  21 N25G35    30.24F
HENDERSON      SUNNY     61  21  21 NE21      30.27S
MERCURY        SUNNY     59  21  23 NE15      30.28F
$$



USA.gov is the U.S. government's official web portal to all federal, state and local government web resources and services.